| time (UTC) | temp F | wind direction | speed MPH | gust MPH | rain 1hr in | rain 24hr in | rain mn in | humidity % | barometer mb |
| 20260904144542 | 63 | 230 | 1.0 | 2.0 | 0.01 | 0.01 | 0.01 | 91 | 1012.3 |
| 20260904143540 | 64 | 233 | 1.0 | 2.0 | 0.01 | 0.01 | 0.01 | 87 | 1012.5 |
| 20260904142538 | 65 | 243 | 1.0 | 4.0 | 0.00 | 0.00 | 0.00 | 84 | 1012.4 |
| 20260904141536 | 66 | 248 | 3.0 | 7.0 | 0.00 | 0.00 | 0.00 | 82 | 1012.7 |
| 20260904140534 | 67 | 267 | 3.0 | 4.0 | 0.00 | 0.00 | 0.00 | 79 | 1012.6 |
| 20260904135531 | 75 | 334 | 3.0 | 7.0 | 0.00 | 0.00 | 0.00 | 68 | 1012.7 |
| 20260904134530 | 76 | 259 | 8.0 | 15.0 | 0.00 | 0.00 | 0.00 | 66 | 1012.3 |
| 20260904133528 | 76 | 285 | 6.0 | 13.0 | 0.00 | 0.00 | 0.00 | 66 | 1012.1 |
| 20260904132525 | 76 | 306 | 5.0 | 13.0 | 0.00 | 0.00 | 0.00 | 67 | 1012.1 |
| 20260904131524 | 76 | 290 | 5.0 | 11.0 | 0.00 | 0.00 | 0.00 | 67 | 1011.9 |
| 20260904130521 | 76 | 263 | 6.0 | 13.0 | 0.00 | 0.00 | 0.00 | 67 | 1011.9 |
| 20260904125520 | 76 | 219 | 6.0 | 16.0 | 0.00 | 0.00 | 0.00 | 68 | 1012.0 |
| 20260904124517 | 76 | 244 | 3.0 | 9.0 | 0.00 | 0.00 | 0.00 | 70 | 1012.1 |
| 20260904123516 | 75 | 245 | 3.0 | 7.0 | 0.00 | 0.00 | 0.00 | 71 | 1012.1 |
| 20260904122653 | 74 | 240 | 4.0 | 8.0 | 0.00 | 0.00 | 0.00 | 74 | 1012.3 |
| 20260904121611 | 74 | 229 | 2.0 | 4.0 | 0.00 | 0.00 | 0.00 | 75 | 1012.2 |
| 20260904120609 | 73 | 240 | 3.0 | 7.0 | 0.00 | 0.00 | 0.00 | 76 | 1012.2 |
| 20260904115607 | 74 | 220 | 2.0 | 7.0 | 0.00 | 0.00 | 0.00 | 76 | 1012.2 |
| 20260904114626 | 73 | 190 | 1.0 | 4.0 | 0.00 | 0.00 | 0.00 | 76 | 1012.1 |
| 20260904113603 | 73 | 216 | 2.0 | 4.0 | 0.00 | 0.00 | 0.00 | 77 | 1012.4 |
| 20260904112622 | 72 | 214 | 2.0 | 4.0 | 0.00 | 0.00 | 0.00 | 77 | 1012.4 |
| 20260904111559 | 72 | 146 | 1.0 | 4.0 | 0.00 | 0.00 | 0.00 | 78 | 1012.7 |
| 20260904110558 | 72 | 217 | 2.0 | 4.0 | 0.00 | 0.00 | 0.00 | 77 | 1012.8 |
| 20260904105555 | 72 | 212 | 2.0 | 11.0 | 0.00 | 0.00 | 0.00 | 77 | 1012.8 |
| 20260904104554 | 72 | 245 | 3.0 | 7.0 | 0.00 | 0.00 | 0.00 | 77 | 1012.9 |
| 20260904103611 | 73 | 230 | 3.0 | 11.0 | 0.00 | 0.00 | 0.00 | 75 | 1012.9 |
| 20260904102549 | 73 | 221 | 2.0 | 7.0 | 0.00 | 0.00 | 0.00 | 75 | 1013.0 |
| 20260904101547 | 73 | 240 | 3.0 | 7.0 | 0.00 | 0.00 | 0.00 | 74 | 1013.2 |
| 20260904100545 | 73 | 240 | 3.0 | 11.0 | 0.00 | 0.00 | 0.00 | 74 | 1013.1 |
| 20260904095544 | 73 | 236 | 3.0 | 6.0 | 0.00 | 0.00 | 0.00 | 74 | 1013.1 |
| 20260904094541 | 72 | 251 | 4.0 | 11.0 | 0.00 | 0.00 | 0.00 | 76 | 1013.4 |
| 20260904093540 | 72 | 238 | 3.0 | 8.0 | 0.00 | 0.00 | 0.00 | 77 | 1013.7 |
| 20260904092537 | 71 | 220 | 1.0 | 4.0 | 0.00 | 0.00 | 0.00 | 78 | 1013.7 |
| 20260904091535 | 72 | 211 | 2.0 | 4.0 | 0.00 | 0.00 | 0.00 | 77 | 1013.7 |
| 20260904090533 | 72 | 236 | 2.0 | 7.0 | 0.00 | 0.00 | 0.00 | 77 | 1013.8 |
| 20260904085531 | 72 | 194 | 1.0 | 4.0 | 0.00 | 0.00 | 0.00 | 78 | 1013.9 |
| 20260904084529 | 71 | 204 | 1.0 | 4.0 | 0.00 | 0.00 | 0.00 | 77 | 1014.0 |
| 20260904083527 | 71 | 197 | 2.0 | 4.0 | 0.00 | 0.00 | 0.00 | 77 | 1013.9 |
| 20260904082525 | 71 | 218 | 1.0 | 4.0 | 0.00 | 0.00 | 0.00 | 78 | 1014.1 |
| 20260904081623 | 71 | 207 | 1.0 | 4.0 | 0.00 | 0.00 | 0.00 | 78 | 1014.2 |
| 20260904080601 | 70 | 219 | 2.0 | 6.0 | 0.00 | 0.00 | 0.00 | 79 | 1014.3 |
| 20260904075519 | 70 | 225 | 2.0 | 4.0 | 0.00 | 0.00 | 0.00 | 80 | 1014.5 |
| 20260904074537 | 69 | 236 | 2.0 | 4.0 | 0.00 | 0.00 | 0.00 | 82 | 1014.4 |
| 20260904073515 | 69 | 240 | 2.0 | 6.0 | 0.00 | 0.00 | 0.00 | 83 | 1014.4 |
| 20260904072613 | 68 | 214 | 2.0 | 6.0 | 0.00 | 0.00 | 0.00 | 86 | 1014.5 |
| 20260904071611 | 68 | 221 | 1.0 | 4.0 | 0.00 | 0.00 | 0.00 | 85 | 1014.5 |
| 20260904070609 | 68 | 203 | 1.0 | 4.0 | 0.00 | 0.00 | 0.00 | 85 | 1014.5 |
| 20260904065607 | 68 | 167 | 2.0 | 6.0 | 0.00 | 0.00 | 0.00 | 83 | 1014.6 |
| 20260904064605 | 68 | 208 | 3.0 | 6.0 | 0.00 | 0.00 | 0.00 | 84 | 1014.7 |
| 20260904063603 | 67 | 211 | 2.0 | 4.0 | 0.00 | 0.00 | 0.00 | 87 | 1014.8 |
| 20260904062601 | 67 | 203 | 1.0 | 4.0 | 0.00 | 0.00 | 0.00 | 88 | 1014.9 |
| 20260904061559 | 66 | 203 | 1.0 | 4.0 | 0.00 | 0.00 | 0.00 | 88 | 1014.8 |
| 20260904060557 | 66 | 223 | 2.0 | 4.0 | 0.00 | 0.00 | 0.00 | 88 | 1014.9 |
| 20260904055555 | 66 | 210 | 2.0 | 6.0 | 0.00 | 0.00 | 0.00 | 88 | 1015.1 |
| 20260904054553 | 66 | 225 | 2.0 | 4.0 | 0.00 | 0.00 | 0.00 | 89 | 1015.2 |
| 20260904053611 | 66 | 215 | 1.0 | 4.0 | 0.00 | 0.00 | 0.00 | 90 | 1015.3 |
| 20260904052629 | 65 | 214 | 2.0 | 4.0 | 0.00 | 0.00 | 0.00 | 90 | 1015.2 |
| 20260904051547 | 65 | 219 | 1.0 | 2.0 | 0.00 | 0.00 | 0.00 | 91 | 1015.4 |
| 20260904050545 | 65 | 218 | 1.0 | 4.0 | 0.00 | 0.00 | 0.00 | 91 | 1015.4 |
| 20260904045603 | 65 | 216 | 2.0 | 4.0 | 0.00 | 0.00 | 0.00 | 90 | 1015.4 |
| 20260904044541 | 65 | 233 | 1.0 | 4.0 | 0.00 | 0.00 | 0.00 | 91 | 1015.5 |
| 20260904043539 | 65 | 227 | 2.0 | 4.0 | 0.00 | 0.00 | 0.00 | 92 | 1015.6 |
| 20260904042537 | 64 | 197 | 1.0 | 4.0 | 0.00 | 0.00 | 0.00 | 92 | 1015.8 |
| 20260904041535 | 64 | 180 | 1.0 | 4.0 | 0.00 | 0.00 | 0.00 | 92 | 1015.7 |
| 20260904040533 | 64 | 165 | 1.0 | 4.0 | 0.00 | 0.00 | 0.00 | 91 | 1016.1 |
| 20260904035531 | 64 | 180 | 2.0 | 4.0 | 0.00 | 0.00 | 0.00 | 91 | 1016.2 |
| 20260904034549 | 64 | 180 | 1.0 | 2.0 | 0.00 | 0.00 | 0.00 | 91 | 1016.1 |
| 20260904033527 | 64 | 180 | 1.0 | 2.0 | 0.00 | 0.00 | 0.00 | 90 | 1016.4 |
| 20260904032525 | 64 | 180 | 0.0 | 2.0 | 0.00 | 0.00 | 0.00 | 90 | 1016.5 |
| 20260904031522 | 64 | 0.0 | 2.0 | 0.00 | 0.00 | 0.00 | 90 | 1016.5 | |
| 20260904030521 | 64 | 180 | 1.0 | 2.0 | 0.00 | 0.00 | 0.00 | 90 | 1016.7 |
| 20260904025518 | 63 | 180 | 0.0 | 2.0 | 0.00 | 0.00 | 0.00 | 90 | 1016.8 |
| 20260904024517 | 63 | 180 | 0.0 | 2.0 | 0.00 | 0.00 | 0.00 | 90 | 1017.0 |
| 20260904023515 | 63 | 0.0 | 2.0 | 0.00 | 0.00 | 0.00 | 90 | 1016.9 | |
| 20260904022613 | 63 | 180 | 2.0 | 4.0 | 0.00 | 0.00 | 0.00 | 90 | 1017.0 |
| 20260904021611 | 63 | 180 | 0.0 | 2.0 | 0.00 | 0.00 | 0.00 | 90 | 1017.3 |
| 20260904020609 | 63 | 0.0 | 2.0 | 0.00 | 0.00 | 0.00 | 90 | 1017.3 | |
| 20260904015627 | 62 | 0.0 | 2.0 | 0.00 | 0.00 | 0.00 | 91 | 1017.3 | |
| 20260904014605 | 62 | 0.0 | 0.0 | 0.00 | 0.00 | 0.00 | 91 | 1017.5 | |
| 20260904013603 | 62 | 0.0 | 0.0 | 0.00 | 0.00 | 0.00 | 91 | 1017.2 | |
| 20260904012621 | 62 | 0.0 | 0.0 | 0.00 | 0.00 | 0.00 | 91 | 1017.6 | |
| 20260904011559 | 62 | 158 | 0.0 | 2.0 | 0.00 | 0.00 | 0.00 | 91 | 1017.8 |
| 20260904010557 | 62 | 158 | 0.0 | 2.0 | 0.00 | 0.00 | 0.00 | 91 | 1017.8 |
| 20260904005555 | 62 | 158 | 0.0 | 2.0 | 0.00 | 0.00 | 0.00 | 89 | 1018.0 |
| 20260904004553 | 63 | 169 | 0.0 | 2.0 | 0.00 | 0.00 | 0.00 | 87 | 1017.9 |
| 20260904003551 | 64 | 180 | 1.0 | 2.0 | 0.00 | 0.00 | 0.00 | 86 | 1018.1 |
| 20260904002629 | 64 | 158 | 0.0 | 2.0 | 0.00 | 0.00 | 0.00 | 86 | 1018.2 |
| 20260904001547 | 64 | 180 | 0.0 | 2.0 | 0.00 | 0.00 | 0.00 | 85 | 1018.3 |
| 20260904000545 | 64 | 180 | 1.0 | 2.0 | 0.00 | 0.00 | 0.00 | 85 | 1018.4 |
| 20260903235543 | 65 | 180 | 1.0 | 2.0 | 0.00 | 0.00 | 0.00 | 84 | 1018.7 |
| 20260903234541 | 66 | 180 | 1.0 | 4.0 | 0.00 | 0.00 | 0.00 | 83 | 1018.7 |
| 20260903233559 | 65 | 176 | 1.0 | 4.0 | 0.00 | 0.00 | 0.00 | 84 | 1018.8 |
| 20260903232536 | 65 | 180 | 1.0 | 4.0 | 0.00 | 0.00 | 0.00 | 85 | 1018.9 |
| 20260903231635 | 65 | 176 | 1.0 | 4.0 | 0.00 | 0.00 | 0.00 | 85 | 1018.9 |
| 20260903230533 | 66 | 0.0 | 2.0 | 0.00 | 0.00 | 0.00 | 84 | 1019.1 | |
| 20260903225530 | 66 | 180 | 2.0 | 4.0 | 0.00 | 0.00 | 0.00 | 83 | 1019.2 |
| 20260903224528 | 66 | 176 | 1.0 | 4.0 | 0.00 | 0.00 | 0.00 | 83 | 1019.3 |
| 20260903223526 | 66 | 178 | 1.0 | 4.0 | 0.00 | 0.00 | 0.00 | 84 | 1019.4 |
| 20260903222524 | 66 | 180 | 2.0 | 4.0 | 0.00 | 0.00 | 0.00 | 84 | 1019.3 |
| 20260903221543 | 66 | 180 | 1.0 | 2.0 | 0.00 | 0.00 | 0.00 | 85 | 1019.4 |
| 20260903220540 | 66 | 180 | 1.0 | 2.0 | 0.00 | 0.00 | 0.00 | 84 | 1019.3 |
| 20260903215518 | 66 | 172 | 1.0 | 2.0 | 0.00 | 0.00 | 0.00 | 84 | 1019.2 |
| 20260903214516 | 66 | 176 | 1.0 | 2.0 | 0.00 | 0.00 | 0.00 | 84 | 1019.4 |
| 20260903213634 | 66 | 176 | 1.0 | 2.0 | 0.00 | 0.00 | 0.00 | 83 | 1019.4 |
| 20260903212612 | 66 | 180 | 1.0 | 2.0 | 0.00 | 0.00 | 0.00 | 83 | 1019.5 |
| 20260903211610 | 66 | 184 | 1.0 | 4.0 | 0.00 | 0.00 | 0.00 | 84 | 1019.5 |
| 20260903210608 | 66 | 180 | 1.0 | 2.0 | 0.00 | 0.00 | 0.00 | 85 | 1019.3 |
| 20260903205606 | 65 | 177 | 1.0 | 4.0 | 0.00 | 0.00 | 0.00 | 86 | 1019.1 |
| 20260903204604 | 64 | 172 | 1.0 | 2.0 | 0.00 | 0.00 | 0.00 | 89 | 1019.0 |
| 20260903203602 | 64 | 158 | 1.0 | 2.0 | 0.00 | 0.00 | 0.00 | 89 | 1019.0 |
| 20260903202620 | 64 | 158 | 0.0 | 2.0 | 0.00 | 0.00 | 0.00 | 89 | 1019.1 |
| 20260903201558 | 64 | 158 | 0.0 | 2.0 | 0.00 | 0.00 | 0.00 | 89 | 1019.2 |
| 20260903200556 | 64 | 158 | 0.0 | 2.0 | 0.00 | 0.00 | 0.00 | 89 | 1019.1 |
| 20260903195554 | 64 | 0.0 | 0.0 | 0.00 | 0.00 | 0.00 | 89 | 1019.2 | |
| 20260903194552 | 64 | 158 | 0.0 | 2.0 | 0.00 | 0.00 | 0.00 | 90 | 1019.3 |
| 20260903193610 | 64 | 158 | 0.0 | 2.0 | 0.00 | 0.00 | 0.00 | 90 | 1019.2 |
| 20260903192548 | 64 | 158 | 0.0 | 2.0 | 0.00 | 0.00 | 0.00 | 89 | 1019.3 |
| 20260903191546 | 65 | 158 | 1.0 | 2.0 | 0.00 | 0.00 | 0.00 | 89 | 1019.3 |
| 20260903190544 | 65 | 33 | 1.0 | 2.0 | 0.00 | 0.00 | 0.00 | 89 | 1019.4 |
| 20260903185542 | 65 | 330 | 1.0 | 4.0 | 0.00 | 0.00 | 0.00 | 89 | 1019.5 |
| 20260903184545 | 65 | 315 | 1.0 | 2.0 | 0.00 | 0.00 | 0.00 | 89 | 1019.4 |
| 20260903183538 | 65 | 315 | 1.0 | 2.0 | 0.00 | 0.00 | 0.00 | 89 | 1019.4 |
| 20260903182536 | 65 | 326 | 0.0 | 2.0 | 0.00 | 0.00 | 0.00 | 89 | 1019.3 |
| 20260903181534 | 65 | 315 | 0.0 | 2.0 | 0.00 | 0.00 | 0.00 | 89 | 1019.1 |
| 20260903180532 | 65 | 324 | 1.0 | 2.0 | 0.00 | 0.00 | 0.00 | 89 | 1019.1 |
| 20260903175530 | 65 | 338 | 0.0 | 2.0 | 0.00 | 0.00 | 0.00 | 89 | 1019.1 |
| 20260903174528 | 65 | 0.0 | 2.0 | 0.00 | 0.00 | 0.00 | 89 | 1019.1 | |
| 20260903173526 | 65 | 336 | 1.0 | 4.0 | 0.00 | 0.00 | 0.00 | 89 | 1019.2 |
| 20260903172543 | 65 | 315 | 0.0 | 2.0 | 0.00 | 0.00 | 0.00 | 90 | 1020.4 |
| 20260903171522 | 0 | 0.0 | 0.0 | 0.00 | 0.00 | 0.00 | 1022.8 | ||
| 20260903170519 | 65 | 338 | 2.0 | 2.0 | 0.00 | 0.00 | 0.00 | 88 | 1019.1 |
| 20260903165538 | 66 | 326 | 1.0 | 2.0 | 0.00 | 0.00 | 0.00 | 87 | 1019.1 |
| 20260903164515 | 66 | 315 | 0.0 | 2.0 | 0.00 | 0.00 | 0.00 | 86 | 1019.1 |
| 20260903163613 | 67 | 315 | 0.0 | 2.0 | 0.00 | 0.00 | 0.00 | 85 | 1019.1 |
| 20260903162611 | 68 | 315 | 1.0 | 2.0 | 0.00 | 0.00 | 0.00 | 83 | 1019.4 |
| 20260903161630 | 67 | 0.0 | 2.0 | 0.00 | 0.00 | 0.00 | 87 | 1019.3 | |
| 20260903160608 | 66 | 315 | 1.0 | 2.0 | 0.00 | 0.00 | 0.00 | 89 | 1019.3 |
| 20260903155605 | 65 | 315 | 1.0 | 4.0 | 0.00 | 0.00 | 0.00 | 89 | 1019.1 |
| 20260903154603 | 65 | 315 | 2.0 | 4.0 | 0.00 | 0.00 | 0.00 | 90 | 1019.2 |
| 20260903153602 | 65 | 315 | 2.0 | 2.0 | 0.00 | 0.00 | 0.00 | 90 | 1019.2 |
| 20260903152600 | 65 | 315 | 2.0 | 4.0 | 0.00 | 0.00 | 0.00 | 90 | 1019.4 |
| 20260903151557 | 64 | 315 | 1.0 | 4.0 | 0.00 | 0.00 | 0.00 | 90 | 1019.4 |
| 20260903150555 | 64 | 338 | 2.0 | 4.0 | 0.00 | 0.00 | 0.00 | 89 | 1020.8 |
| 20260903145554 | 65 | 315 | 1.0 | 2.0 | 0.00 | 0.00 | 0.00 | 88 | 1021.4 |